This is the latest recevied weather packets stored in our database for station/object KV9E. If no packets are shown the sender has not sent any weather packets the latest 1 day(s).
| Time | Temp. | Humidity | Pressure | Rain* | Wind** | Luminosity | Snow |
|---|---|---|---|---|---|---|---|
| 1778031720 | 17.22° C | 66% | 1009.7 hPa | 0 mm | 0 m/s | 0 W/m² | - |
| 1778031418 | 17.22° C | 66% | 1009.6 hPa | 0 mm | 0.45 m/s, 129° | 0 W/m² | - |
| 1778031115 | 17.22° C | 65% | 1009.6 hPa | 0 mm | 0 m/s | 0 W/m² | - |
| 1778030811 | 17.22° C | 66% | 1009.5 hPa | 0 mm | 0 m/s | 0 W/m² | - |
| 1778030508 | 17.78° C | 63% | 1009.1 hPa | 0 mm | 0 m/s | 0 W/m² | - |
| 1778030206 | 17.78° C | 59% | 1009.3 hPa | 0 mm | 0 m/s | 0 W/m² | - |
| 1778029901 | 17.78° C | 58% | 1009.1 hPa | 0 mm | 0 m/s | 0 W/m² | - |
| 1778029600 | 17.78° C | 58% | 1009 hPa | 0 mm | 0.89 m/s, 129° | 0 W/m² | - |
| 1778029297 | 17.78° C | 57% | 1009.1 hPa | 0 mm | 0.45 m/s, 165° | 0 W/m² | - |
| 1778028994 | 17.78° C | 57% | 1009.3 hPa | 0 mm | 0 m/s | 0 W/m² | - |
| 1778028691 | 17.78° C | 57% | 1008.9 hPa | 0 mm | 0 m/s | 0 W/m² | - |
| 1778028387 | 17.78° C | 56% | 1008.7 hPa | 0 mm | 0 m/s | 0 W/m² | - |
| 1778028084 | 17.78° C | 56% | 1008.7 hPa | 0 mm | 0 m/s | 0 W/m² | - |
| 1778027780 | 17.78° C | 56% | 1008.9 hPa | 0 mm | 0.89 m/s, 205° | 1 W/m² | - |
| 1778027476 | 17.78° C | 56% | 1008.9 hPa | 0 mm | 0 m/s | 1 W/m² | - |
| 1778027172 | 18.33° C | 55% | 1008.7 hPa | 0 mm | 0.89 m/s, 98° | 3 W/m² | - |
| 1778026868 | 18.33° C | 55% | 1009.1 hPa | 0 mm | 0 m/s | 4 W/m² | - |
| 1778026564 | 18.33° C | 56% | 1009.1 hPa | 0 mm | 0 m/s | 5 W/m² | - |
| 1778026262 | 17.78° C | 56% | 1009.3 hPa | 0 mm | 0 m/s | 6 W/m² | - |
| 1778025959 | 18.33° C | 56% | 1009.1 hPa | 0 mm | 0 m/s | 9 W/m² | - |
| 1778025656 | 18.33° C | 56% | 1009.1 hPa | 0 mm | 0 m/s | 13 W/m² | - |
| 1778025354 | 18.33° C | 56% | 1009.1 hPa | 0 mm | 0.45 m/s, 167° | 17 W/m² | - |
| 1778025051 | 18.33° C | 56% | 1009.1 hPa | 0 mm | 0 m/s | 22 W/m² | - |
| 1778024748 | 18.33° C | 54% | 1009 hPa | 0 mm | 0 m/s | 23 W/m² | - |
| 1778024444 | 18.89° C | 55% | 1009.3 hPa | 0 mm | 0 m/s | 25 W/m² | - |
* Rain latest hour (hover to see other rain measurements)
** Current wind speed in m/s (hover to see current wind gust speed)